Location: Sternwarte ZA, Rosenfeld-Brittheim
(48.2889°N, 8.6789°E)
Time: 21:32:54
(UTC+02:00)

ISS - Pass Details

Date: 28 May 2017
Orbit: 402 x 409 km, 51.6° (Epoch: 25 May)

Event Time Altitude Azimuth Distance (km) Brightness Sun altitude
Rises 01:40:51 0° 290° (WNW) 2,333 0.2 -20.1°
Reaches altitude 10° 01:42:57 10° 293° (WNW) 1,470 -0.8 -20.1°
Maximum altitude 01:46:14 69° 18° (NNE) 438 -3.6 -20.1°
Enters shadow 01:47:25 36° 91° (E) 668 -2.8 -20.0°
